Terminal Aerodrome Forecast
Issued by NWS

Home | Current Version | Previous Version | Graphics & Text | Print | Product List | Glossary On
Versions: 1 2 3 4 5 6 7 8 9 10 11 12 13 14 15 16 17 18 19 20 21 22 23 24 25 26 27 28 29 30 31 32 33 34 35 36 37 38 39 40 41 42 43 44 45 46 47 48 49 50
000
FTUS43 KLOT 241500 AAB
TAFGYY
TAF AMD
KGYY 241600Z 2416/2512 25024G35KT 4SM -RASN OVC010
     FM241800 24024G35KT 3SM -SN BKN009 OVC015
     FM242200 24024G34KT 5SM -SN BKN012 OVC020
     FM250000 25020G30KT P6SM -SHSN SCT015 OVC025
     FM250600 26013KT P6SM BKN025 OVC035=

USA.gov is the U.S. government's official web portal to all federal, state and local government web resources and services.